| time (UTC) | temp F | wind direction | speed MPH | gust MPH | rain 1hr in | rain 24hr in | rain mn in | humidity % | barometer mb |
| 20260509203032 | 61 | 351 | 2.0 | 5.0 | 0.00 | 0.20 | 0.20 | 77 | 1009.2 |
| 20260509202525 | 61 | 34 | 1.0 | 5.0 | 0.00 | 0.20 | 0.20 | 76 | 1009.2 |
| 20260509202044 | 61 | 355 | 2.0 | 6.0 | 0.00 | 0.20 | 0.20 | 75 | 1009.2 |
| 20260509201602 | 62 | 321 | 4.0 | 6.0 | 0.00 | 0.20 | 0.20 | 74 | 1009.1 |
| 20260509201037 | 62 | 338 | 3.0 | 8.0 | 0.00 | 0.20 | 0.20 | 75 | 1009.2 |
| 20260509200527 | 62 | 317 | 3.0 | 8.0 | 0.00 | 0.20 | 0.20 | 73 | 1009.2 |
| 20260509200042 | 62 | 332 | 3.0 | 8.0 | 0.00 | 0.20 | 0.20 | 74 | 1009.3 |
| 20260509195541 | 62 | 317 | 3.0 | 6.0 | 0.00 | 0.20 | 0.20 | 74 | 1009.4 |
| 20260509195042 | 62 | 329 | 4.0 | 9.0 | 0.00 | 0.20 | 0.20 | 73 | 1009.3 |
| 20260509194540 | 62 | 328 | 4.0 | 9.0 | 0.00 | 0.20 | 0.20 | 73 | 1009.4 |
| 20260509194101 | 62 | 290 | 4.0 | 9.0 | 0.00 | 0.20 | 0.20 | 71 | 1009.4 |
| 20260509193540 | 63 | 287 | 6.0 | 9.0 | 0.00 | 0.20 | 0.20 | 71 | 1009.5 |
| 20260509193102 | 63 | 287 | 5.0 | 7.0 | 0.00 | 0.20 | 0.20 | 69 | 1009.2 |
| 20260509192536 | 63 | 200 | 2.0 | 3.0 | 0.00 | 0.20 | 0.20 | 69 | 1009.1 |
| 20260509192029 | 63 | 200 | 2.0 | 3.0 | 0.00 | 0.20 | 0.20 | 69 | 1009.0 |
| 20260509191525 | 63 | 128 | 1.0 | 4.0 | 0.00 | 0.20 | 0.20 | 69 | 1009.0 |
| 20260509191101 | 63 | 128 | 1.0 | 4.0 | 0.00 | 0.20 | 0.20 | 70 | 1009.0 |
| 20260509190557 | 63 | 146 | 2.0 | 4.0 | 0.00 | 0.20 | 0.20 | 73 | 1008.9 |
| 20260509190035 | 63 | 289 | 1.0 | 2.0 | 0.00 | 0.20 | 0.20 | 73 | 1008.9 |
| 20260509185526 | 62 | 289 | 0.0 | 2.0 | 0.00 | 0.20 | 0.20 | 72 | 1009.1 |
| 20260509185047 | 62 | 267 | 0.0 | 5.0 | 0.00 | 0.20 | 0.20 | 75 | 1009.3 |
| 20260509184538 | 61 | 251 | 2.0 | 5.0 | 0.00 | 0.20 | 0.20 | 76 | 1009.1 |
| 20260509184101 | 61 | 192 | 3.0 | 5.0 | 0.00 | 0.20 | 0.20 | 75 | 1009.5 |
| 20260509183530 | 61 | 217 | 1.0 | 6.0 | 0.00 | 0.20 | 0.20 | 78 | 1009.6 |
| 20260509183026 | 60 | 198 | 4.0 | 6.0 | 0.00 | 0.20 | 0.20 | 78 | 1009.7 |
| 20260509182534 | 60 | 309 | 2.0 | 4.0 | 0.00 | 0.20 | 0.20 | 80 | 1009.6 |
| 20260509182031 | 60 | 265 | 2.0 | 4.0 | 0.00 | 0.20 | 0.20 | 80 | 1009.9 |
| 20260509181524 | 59 | 225 | 0.0 | 4.0 | 0.00 | 0.20 | 0.20 | 80 | 1009.8 |
| 20260509181042 | 59 | 195 | 1.0 | 3.0 | 0.00 | 0.20 | 0.20 | 81 | 1010.0 |
| 20260509180540 | 59 | 237 | 0.0 | 7.0 | 0.00 | 0.20 | 0.20 | 81 | 1009.9 |
| 20260509180034 | 58 | 163 | 3.0 | 7.0 | 0.00 | 0.20 | 0.20 | 81 | 1009.9 |
| 20260509175526 | 58 | 194 | 5.0 | 7.0 | 0.00 | 0.20 | 0.20 | 81 | 1010.0 |
| 20260509175042 | 58 | 155 | 4.0 | 8.0 | 0.00 | 0.20 | 0.20 | 82 | 1010.0 |
| 20260509174534 | 59 | 144 | 6.0 | 8.0 | 0.00 | 0.20 | 0.20 | 83 | 1010.0 |
| 20260509174057 | 58 | 188 | 1.0 | 5.0 | 0.00 | 0.20 | 0.20 | 85 | 1010.0 |
| 20260509173529 | 58 | 146 | 4.0 | 5.0 | 0.00 | 0.20 | 0.20 | 86 | 1010.1 |
| 20260509173025 | 58 | 155 | 3.0 | 5.0 | 0.00 | 0.20 | 0.20 | 85 | 1010.1 |
| 20260509172543 | 58 | 138 | 0.0 | 4.0 | 0.00 | 0.20 | 0.20 | 87 | 1010.0 |
| 20260509172105 | 57 | 138 | 1.0 | 5.0 | 0.00 | 0.20 | 0.20 | 88 | 1010.0 |
| 20260509171538 | 57 | 123 | 2.0 | 7.0 | 0.00 | 0.20 | 0.20 | 88 | 1010.2 |
| 20260509171042 | 57 | 140 | 4.0 | 7.0 | 0.00 | 0.20 | 0.20 | 88 | 1010.4 |
| 20260509170541 | 56 | 143 | 4.0 | 7.0 | 0.00 | 0.20 | 0.20 | 88 | 1010.4 |
| 20260509170041 | 56 | 125 | 4.0 | 7.0 | 0.00 | 0.20 | 0.20 | 88 | 1010.5 |
| 20260509165533 | 56 | 144 | 3.0 | 7.0 | 0.00 | 0.20 | 0.20 | 89 | 1010.7 |
| 20260509165054 | 56 | 127 | 4.0 | 7.0 | 0.00 | 0.20 | 0.20 | 88 | 1010.7 |
| 20260509164525 | 56 | 140 | 4.0 | 7.0 | 0.00 | 0.20 | 0.20 | 88 | 1010.9 |
| 20260509164044 | 56 | 142 | 4.0 | 7.0 | 0.00 | 0.20 | 0.20 | 88 | 1010.8 |
| 20260509163536 | 56 | 157 | 4.0 | 7.0 | 0.00 | 0.20 | 0.20 | 88 | 1010.7 |
| 20260509163057 | 56 | 146 | 4.0 | 7.0 | 0.00 | 0.20 | 0.20 | 87 | 1010.7 |
| 20260509162530 | 56 | 168 | 5.0 | 7.0 | 0.00 | 0.20 | 0.20 | 88 | 1010.7 |
| 20260509162047 | 56 | 146 | 4.0 | 6.0 | 0.00 | 0.20 | 0.20 | 88 | 1010.7 |
| 20260509161544 | 56 | 121 | 4.0 | 6.0 | 0.01 | 0.20 | 0.20 | 88 | 1010.5 |
| 20260509161045 | 56 | 130 | 3.0 | 4.0 | 0.01 | 0.20 | 0.20 | 89 | 1010.5 |
| 20260509160544 | 56 | 46 | 1.0 | 3.0 | 0.02 | 0.20 | 0.20 | 90 | 1010.5 |
| 20260509160104 | 55 | 355 | 1.0 | 3.0 | 0.02 | 0.20 | 0.20 | 89 | 1010.4 |
| 20260509155540 | 55 | 318 | 0.0 | 3.0 | 0.03 | 0.20 | 0.20 | 89 | 1010.4 |
| 20260509155041 | 55 | 318 | 1.0 | 3.0 | 0.04 | 0.20 | 0.20 | 90 | 1010.3 |
| 20260509154535 | 55 | 85 | 0.0 | 3.0 | 0.05 | 0.20 | 0.20 | 90 | 1010.2 |
| 20260509154026 | 55 | 85 | 2.0 | 4.0 | 0.06 | 0.20 | 0.20 | 90 | 1010.1 |
| 20260509153524 | 55 | 85 | 2.0 | 4.0 | 0.07 | 0.20 | 0.20 | 91 | 1010.2 |
| 20260509153044 | 55 | 57 | 1.0 | 4.0 | 0.08 | 0.20 | 0.20 | 90 | 1010.1 |
| 20260509152544 | 55 | 5 | 0.0 | 3.0 | 0.09 | 0.20 | 0.20 | 90 | 1010.3 |
| 20260509152043 | 55 | 355 | 2.0 | 3.0 | 0.10 | 0.20 | 0.20 | 90 | 1010.3 |
| 20260509151540 | 54 | 360 | 1.0 | 5.0 | 0.11 | 0.19 | 0.19 | 90 | 1010.4 |
| 20260509151042 | 54 | 5 | 0.0 | 5.0 | 0.12 | 0.19 | 0.19 | 88 | 1010.6 |
| 20260509150537 | 54 | 13 | 2.0 | 3.0 | 0.12 | 0.18 | 0.18 | 88 | 1010.7 |
| 20260509150033 | 54 | 294 | 1.0 | 8.0 | 0.13 | 0.18 | 0.18 | 88 | 1010.9 |
| 20260509145527 | 54 | 294 | 1.0 | 8.0 | 0.12 | 0.17 | 0.17 | 87 | 1011.0 |
| 20260509145104 | 54 | 279 | 3.0 | 7.0 | 0.12 | 0.16 | 0.16 | 86 | 1011.1 |
| 20260509144540 | 55 | 103 | 1.0 | 3.0 | 0.11 | 0.15 | 0.15 | 87 | 1011.2 |
| 20260509144034 | 55 | 156 | 1.0 | 3.0 | 0.11 | 0.14 | 0.14 | 86 | 1011.3 |
| 20260509143527 | 55 | 156 | 2.0 | 3.0 | 0.10 | 0.13 | 0.13 | 87 | 1011.3 |
| 20260509143050 | 55 | 156 | 2.0 | 3.0 | 0.10 | 0.12 | 0.12 | 87 | 1011.3 |
| 20260509142524 | 55 | 156 | 1.0 | 5.0 | 0.09 | 0.11 | 0.11 | 86 | 1011.1 |
| 20260509142103 | 55 | 156 | 2.0 | 5.0 | 0.09 | 0.10 | 0.10 | 86 | 1011.1 |
| 20260509141542 | 55 | 156 | 3.0 | 5.0 | 0.07 | 0.08 | 0.08 | 85 | 1011.0 |
| 20260509141104 | 55 | 161 | 4.0 | 5.0 | 0.06 | 0.07 | 0.07 | 84 | 1011.0 |
| 20260509140538 | 55 | 147 | 3.0 | 4.0 | 0.05 | 0.06 | 0.06 | 84 | 1010.9 |
| 20260509140036 | 55 | 147 | 3.0 | 4.0 | 0.04 | 0.05 | 0.05 | 83 | 1010.8 |
| 20260509135536 | 56 | 140 | 2.0 | 4.0 | 0.04 | 0.05 | 0.05 | 83 | 1010.8 |
| 20260509135031 | 56 | 132 | 2.0 | 5.0 | 0.03 | 0.04 | 0.04 | 82 | 1010.7 |
| 20260509134548 | 56 | 125 | 3.0 | 7.0 | 0.03 | 0.04 | 0.04 | 82 | 1010.7 |
| 20260509134047 | 56 | 144 | 4.0 | 7.0 | 0.02 | 0.03 | 0.03 | 82 | 1010.7 |
| 20260509133544 | 56 | 134 | 4.0 | 7.0 | 0.02 | 0.03 | 0.03 | 82 | 1010.7 |
| 20260509133044 | 56 | 134 | 4.0 | 7.0 | 0.01 | 0.02 | 0.02 | 82 | 1010.7 |
| 20260509132544 | 56 | 139 | 4.0 | 8.0 | 0.01 | 0.02 | 0.02 | 81 | 1010.8 |
| 20260509132041 | 56 | 147 | 5.0 | 8.0 | 0.00 | 0.01 | 0.01 | 80 | 1010.7 |
| 20260509131535 | 56 | 131 | 4.0 | 5.0 | 0.00 | 0.01 | 0.01 | 80 | 1010.7 |
| 20260509131026 | 56 | 133 | 3.0 | 5.0 | 0.00 | 0.01 | 0.01 | 78 | 1010.6 |
| 20260509130539 | 56 | 161 | 3.0 | 5.0 | 0.00 | 0.01 | 0.01 | 78 | 1010.7 |
| 20260509130035 | 55 | 135 | 1.0 | 3.0 | 0.00 | 0.01 | 0.01 | 79 | 1010.6 |
| 20260509125555 | 55 | 135 | 2.0 | 4.0 | 0.00 | 0.01 | 0.01 | 79 | 1010.6 |
| 20260509125030 | 55 | 135 | 2.0 | 4.0 | 0.00 | 0.01 | 0.01 | 81 | 1010.6 |
| 20260509124548 | 55 | 135 | 2.0 | 4.0 | 0.00 | 0.01 | 0.01 | 82 | 1010.7 |
| 20260509124041 | 54 | 135 | 2.0 | 3.0 | 0.00 | 0.01 | 0.01 | 81 | 1010.7 |
| 20260509123532 | 54 | 160 | 2.0 | 5.0 | 0.01 | 0.01 | 0.01 | 81 | 1010.8 |
| 20260509123025 | 54 | 178 | 3.0 | 7.0 | 0.01 | 0.01 | 0.01 | 81 | 1010.8 |
| 20260509122543 | 54 | 176 | 5.0 | 7.0 | 0.01 | 0.01 | 0.01 | 82 | 1010.9 |
| 20260509122037 | 54 | 161 | 4.0 | 5.0 | 0.01 | 0.01 | 0.01 | 82 | 1010.9 |
| 20260509121531 | 54 | 172 | 2.0 | 3.0 | 0.01 | 0.01 | 0.01 | 82 | 1010.8 |
| 20260509121026 | 53 | 172 | 1.0 | 4.0 | 0.01 | 0.01 | 0.01 | 82 | 1010.9 |
| 20260509120543 | 53 | 172 | 2.0 | 7.0 | 0.01 | 0.01 | 0.01 | 83 | 1010.8 |
| 20260509120104 | 53 | 156 | 4.0 | 7.0 | 0.01 | 0.01 | 0.01 | 83 | 1010.9 |
| 20260509115601 | 53 | 161 | 5.0 | 6.0 | 0.01 | 0.01 | 0.01 | 83 | 1011.0 |
| 20260509115042 | 53 | 355 | 1.0 | 3.0 | 0.01 | 0.01 | 0.01 | 83 | 1010.8 |
| 20260509114541 | 53 | 355 | 1.0 | 3.0 | 0.01 | 0.01 | 0.01 | 82 | 1010.6 |
| 20260509114041 | 53 | 63 | 1.0 | 2.0 | 0.01 | 0.01 | 0.01 | 82 | 1010.6 |
| 20260509113537 | 53 | 121 | 0.0 | 2.0 | 0.00 | 0.00 | 0.00 | 82 | 1010.7 |
| 20260509113032 | 53 | 121 | 1.0 | 2.0 | 0.00 | 0.00 | 0.00 | 80 | 1010.8 |
| 20260509112548 | 53 | 121 | 2.0 | 4.0 | 0.00 | 0.00 | 0.00 | 79 | 1010.8 |
| 20260509112043 | 53 | 121 | 2.0 | 4.0 | 0.00 | 0.00 | 0.00 | 79 | 1010.8 |
| 20260509111539 | 53 | 121 | 0.0 | 3.0 | 0.00 | 0.00 | 0.00 | 79 | 1010.8 |
| 20260509111101 | 53 | 36 | 0.0 | 2.0 | 0.00 | 0.00 | 0.00 | 80 | 1010.6 |
| 20260509110531 | 53 | 36 | 0.0 | 5.0 | 0.00 | 0.00 | 0.00 | 79 | 1010.6 |
| 20260509110027 | 53 | 58 | 3.0 | 5.0 | 0.00 | 0.00 | 0.00 | 79 | 1010.3 |
| 20260509105539 | 53 | 307 | 0.0 | 3.0 | 0.00 | 0.00 | 0.00 | 79 | 1010.4 |
| 20260509105033 | 53 | 307 | 0.0 | 2.0 | 0.00 | 0.00 | 0.00 | 78 | 1010.3 |
| 20260509104528 | 53 | 307 | 1.0 | 2.0 | 0.00 | 0.00 | 0.00 | 77 | 1010.4 |
| 20260509104028 | 53 | 307 | 0.0 | 2.0 | 0.00 | 0.00 | 0.00 | 77 | 1010.2 |
| 20260509103544 | 53 | 307 | 0.0 | 2.0 | 0.00 | 0.00 | 0.00 | 78 | 1010.1 |
| 20260509103038 | 53 | 307 | 0.0 | 2.0 | 0.00 | 0.00 | 0.00 | 76 | 1010.2 |
| 20260509102531 | 53 | 307 | 1.0 | 2.0 | 0.00 | 0.00 | 0.00 | 76 | 1010.1 |
| 20260509102028 | 53 | 307 | 1.0 | 4.0 | 0.00 | 0.00 | 0.00 | 75 | 1010.0 |
| 20260509101543 | 53 | 307 | 2.0 | 4.0 | 0.00 | 0.00 | 0.00 | 75 | 1010.0 |
| 20260509101043 | 53 | 345 | 2.0 | 3.0 | 0.00 | 0.00 | 0.00 | 75 | 1009.8 |
| 20260509100540 | 53 | 345 | 1.0 | 2.0 | 0.00 | 0.00 | 0.00 | 75 | 1009.7 |
| 20260509100035 | 53 | 345 | 0.0 | 0.0 | 0.00 | 0.00 | 0.00 | 75 | 1009.7 |
| 20260509095534 | 53 | 345 | 0.0 | 2.0 | 0.00 | 0.00 | 0.00 | 74 | 1009.5 |
| 20260509095052 | 53 | 345 | 1.0 | 2.0 | 0.00 | 0.00 | 0.00 | 74 | 1009.6 |
| 20260509094526 | 53 | 345 | 0.0 | 2.0 | 0.00 | 0.00 | 0.00 | 74 | 1009.7 |
| 20260509094106 | 53 | 345 | 0.0 | 2.0 | 0.00 | 0.00 | 0.00 | 74 | 1009.6 |
| 20260509093542 | 53 | 345 | 0.0 | 2.0 | 0.00 | 0.00 | 0.00 | 74 | 1009.5 |
| 20260509093041 | 53 | 345 | 1.0 | 4.0 | 0.00 | 0.00 | 0.00 | 73 | 1009.6 |
| 20260509092538 | 53 | 333 | 2.0 | 4.0 | 0.00 | 0.00 | 0.00 | 73 | 1009.7 |
| 20260509092034 | 53 | 338 | 0.0 | 4.0 | 0.00 | 0.00 | 0.00 | 73 | 1009.6 |
| 20260509091551 | 53 | 338 | 1.0 | 4.0 | 0.00 | 0.00 | 0.00 | 73 | 1009.6 |
| 20260509091026 | 53 | 323 | 3.0 | 4.0 | 0.00 | 0.00 | 0.00 | 73 | 1009.8 |
| 20260509090543 | 53 | 323 | 3.0 | 4.0 | 0.00 | 0.00 | 0.00 | 73 | 1009.7 |
| 20260509090044 | 53 | 318 | 2.0 | 4.0 | 0.00 | 0.00 | 0.00 | 73 | 1009.6 |
| 20260509085538 | 53 | 312 | 3.0 | 4.0 | 0.00 | 0.00 | 0.00 | 73 | 1009.7 |
| 20260509085032 | 53 | 310 | 0.0 | 0.0 | 0.00 | 0.00 | 0.00 | 74 | 1009.6 |
| 20260509084548 | 53 | 309 | 0.0 | 0.0 | 0.00 | 0.00 | 0.00 | 74 | 1009.7 |
| 20260509084045 | 53 | 310 | 0.0 | 0.0 | 0.00 | 0.00 | 0.00 | 73 | 1009.7 |
| 20260509083538 | 54 | 310 | 0.0 | 0.0 | 0.00 | 0.00 | 0.00 | 73 | 1009.7 |
| 20260509083057 | 54 | 310 | 0.0 | 0.0 | 0.00 | 0.00 | 0.00 | 73 | 1009.6 |
| 20260509082530 | 54 | 310 | 0.0 | 0.0 | 0.00 | 0.00 | 0.00 | 73 | 1009.8 |
| 20260509082051 | 54 | 310 | 0.0 | 2.0 | 0.00 | 0.00 | 0.00 | 73 | 1009.9 |
| 20260509081548 | 54 | 310 | 0.0 | 2.0 | 0.00 | 0.00 | 0.00 | 73 | 1009.9 |
| 20260509081047 | 54 | 310 | 2.0 | 3.0 | 0.00 | 0.00 | 0.00 | 72 | 1009.9 |
| 20260509080605 | 54 | 310 | 2.0 | 4.0 | 0.00 | 0.00 | 0.00 | 71 | 1009.9 |
| 20260509080037 | 54 | 310 | 2.0 | 4.0 | 0.00 | 0.00 | 0.00 | 72 | 1009.9 |
| 20260509075531 | 54 | 20 | 2.0 | 3.0 | 0.00 | 0.00 | 0.00 | 72 | 1009.9 |
| 20260509075025 | 54 | 57 | 1.0 | 3.0 | 0.00 | 0.00 | 0.00 | 72 | 1009.8 |
| 20260509074536 | 54 | 57 | 0.0 | 1.0 | 0.00 | 0.00 | 0.00 | 72 | 1009.7 |
| 20260509074039 | 54 | 57 | 0.0 | 1.0 | 0.00 | 0.00 | 0.00 | 72 | 1009.7 |
| 20260509073531 | 54 | 57 | 0.0 | 1.0 | 0.00 | 0.00 | 0.00 | 71 | 1009.7 |
| 20260509073027 | 54 | 57 | 0.0 | 2.0 | 0.00 | 0.00 | 0.00 | 71 | 1009.9 |
| 20260509072544 | 54 | 57 | 0.0 | 3.0 | 0.00 | 0.00 | 0.00 | 71 | 1009.9 |
| 20260509072043 | 54 | 57 | 1.0 | 4.0 | 0.00 | 0.00 | 0.00 | 71 | 1009.8 |
| 20260509071541 | 54 | 57 | 1.0 | 5.0 | 0.00 | 0.00 | 0.00 | 70 | 1010.0 |
| 20260509071041 | 54 | 62 | 3.0 | 5.0 | 0.00 | 0.00 | 0.00 | 71 | 1010.0 |
| 20260509070540 | 54 | 55 | 2.0 | 5.0 | 0.00 | 0.00 | 0.00 | 71 | 1010.0 |
| 20260509070039 | 54 | 53 | 3.0 | 5.0 | 0.00 | 0.00 | 0.00 | 70 | 1010.0 |
| 20260509065537 | 54 | 32 | 2.0 | 7.0 | 0.00 | 0.00 | 0.00 | 70 | 1010.1 |
| 20260509065028 | 54 | 59 | 3.0 | 7.0 | 0.00 | 0.00 | 0.00 | 70 | 1010.2 |
| 20260509064547 | 54 | 52 | 3.0 | 6.0 | 0.00 | 0.00 | 0.00 | 70 | 1010.2 |
| 20260509064105 | 54 | 54 | 3.0 | 6.0 | 0.00 | 0.00 | 0.00 | 70 | 1010.2 |
| 20260509063542 | 54 | 32 | 2.0 | 6.0 | 0.00 | 0.00 | 0.00 | 70 | 1010.3 |
| 20260509063102 | 54 | 37 | 3.0 | 6.0 | 0.00 | 0.00 | 0.00 | 70 | 1010.3 |
| 20260509062536 | 54 | 25 | 3.0 | 6.0 | 0.00 | 0.00 | 0.00 | 69 | 1010.3 |
| 20260509062031 | 55 | 5 | 3.0 | 6.0 | 0.00 | 0.00 | 0.00 | 68 | 1010.4 |
| 20260509061524 | 55 | 355 | 3.0 | 5.0 | 0.00 | 0.00 | 0.00 | 68 | 1010.3 |
| 20260509061042 | 55 | 9 | 2.0 | 5.0 | 0.00 | 0.00 | 0.00 | 69 | 1010.4 |
| 20260509060539 | 55 | 340 | 3.0 | 5.0 | 0.00 | 0.00 | 0.00 | 68 | 1010.6 |
| 20260509060034 | 55 | 334 | 3.0 | 4.0 | 0.00 | 0.00 | 0.00 | 68 | 1010.6 |
| 20260509055526 | 55 | 355 | 1.0 | 2.0 | 0.00 | 0.00 | 0.00 | 68 | 1010.5 |
| 20260509055025 | 55 | 355 | 1.0 | 2.0 | 0.00 | 0.00 | 0.00 | 68 | 1010.6 |
| 20260509054600 | 55 | 355 | 0.0 | 2.0 | 0.00 | 0.00 | 0.00 | 67 | 1010.5 |
| 20260509054041 | 55 | 355 | 0.0 | 2.0 | 0.00 | 0.00 | 0.00 | 68 | 1010.5 |
| 20260509053532 | 55 | 355 | 0.0 | 2.0 | 0.00 | 0.00 | 0.00 | 67 | 1010.4 |
| 20260509053027 | 55 | 355 | 1.0 | 2.0 | 0.00 | 0.00 | 0.00 | 67 | 1010.5 |
| 20260509052538 | 56 | 355 | 0.0 | 3.0 | 0.00 | 0.00 | 0.00 | 68 | 1010.6 |
| 20260509052034 | 55 | 355 | 0.0 | 3.0 | 0.00 | 0.00 | 0.00 | 67 | 1010.6 |
| 20260509051526 | 55 | 355 | 1.0 | 4.0 | 0.00 | 0.00 | 0.00 | 67 | 1010.5 |
| 20260509051044 | 55 | 348 | 1.0 | 4.0 | 0.00 | 0.00 | 0.00 | 66 | 1010.5 |
| 20260509050541 | 55 | 355 | 2.0 | 4.0 | 0.00 | 0.00 | 0.00 | 67 | 1010.6 |
| 20260509050038 | 55 | 355 | 2.0 | 4.0 | 0.00 | 0.00 | 0.00 | 68 | 1010.5 |
| 20260509045529 | 55 | 341 | 2.0 | 4.0 | 0.00 | 0.00 | 0.00 | 68 | 1010.6 |
| 20260509045044 | 55 | 331 | 2.0 | 4.0 | 0.00 | 0.00 | 0.00 | 68 | 1010.6 |
| 20260509044532 | 55 | 298 | 2.0 | 4.0 | 0.00 | 0.00 | 0.00 | 68 | 1010.6 |
| 20260509044026 | 56 | 351 | 1.0 | 3.0 | 0.00 | 0.00 | 0.00 | 68 | 1010.7 |
| 20260509043542 | 56 | 128 | 1.0 | 3.0 | 0.00 | 0.00 | 0.00 | 68 | 1010.7 |
| 20260509043037 | 56 | 355 | 1.0 | 3.0 | 0.00 | 0.00 | 0.00 | 68 | 1010.8 |
| 20260509042531 | 56 | 355 | 1.0 | 3.0 | 0.00 | 0.00 | 0.00 | 68 | 1010.8 |
| 20260509042026 | 56 | 355 | 0.0 | 3.0 | 0.00 | 0.00 | 0.00 | 67 | 1010.8 |
| 20260509041603 | 56 | 355 | 0.0 | 0.0 | 0.00 | 0.00 | 0.00 | 67 | 1011.0 |
| 20260509041037 | 56 | 355 | 0.0 | 0.0 | 0.00 | 0.00 | 0.00 | 67 | 1011.0 |
| 20260509040541 | 56 | 355 | 0.0 | 0.0 | 0.00 | 0.00 | 0.00 | 68 | 1011.0 |
| 20260509040035 | 56 | 355 | 0.0 | 3.0 | 0.00 | 0.00 | 0.00 | 67 | 1010.9 |
| 20260509035524 | 56 | 355 | 0.0 | 3.0 | 0.00 | 0.00 | 0.00 | 66 | 1011.0 |
| 20260509035045 | 56 | 355 | 2.0 | 4.0 | 0.00 | 0.00 | 0.00 | 66 | 1011.1 |
| 20260509034538 | 56 | 330 | 2.0 | 4.0 | 0.00 | 0.00 | 0.00 | 66 | 1011.0 |
| 20260509034038 | 56 | 69 | 1.0 | 2.0 | 0.00 | 0.00 | 0.00 | 66 | 1010.9 |
| 20260509033556 | 56 | 68 | 0.0 | 2.0 | 0.00 | 0.00 | 0.00 | 66 | 1011.0 |
| 20260509033054 | 56 | 68 | 1.0 | 3.0 | 0.00 | 0.00 | 0.00 | 66 | 1010.9 |
| 20260509032526 | 57 | 68 | 2.0 | 3.0 | 0.00 | 0.00 | 0.00 | 66 | 1011.0 |
| 20260509032043 | 57 | 68 | 2.0 | 3.0 | 0.00 | 0.00 | 0.00 | 65 | 1011.0 |
| 20260509031541 | 57 | 68 | 2.0 | 3.0 | 0.00 | 0.00 | 0.00 | 63 | 1011.1 |
| 20260509031042 | 57 | 68 | 0.0 | 1.0 | 0.00 | 0.00 | 0.00 | 64 | 1011.2 |
| 20260509030540 | 57 | 68 | 0.0 | 1.0 | 0.00 | 0.00 | 0.00 | 64 | 1011.4 |
| 20260509030034 | 57 | 68 | 0.0 | 2.0 | 0.00 | 0.00 | 0.00 | 63 | 1011.4 |
| 20260509025525 | 57 | 68 | 0.0 | 3.0 | 0.00 | 0.00 | 0.00 | 62 | 1011.6 |
| 20260509025044 | 57 | 124 | 2.0 | 3.0 | 0.00 | 0.00 | 0.00 | 62 | 1011.4 |
| 20260509024600 | 58 | 124 | 0.0 | 2.0 | 0.00 | 0.00 | 0.00 | 63 | 1011.6 |
| 20260509024058 | 58 | 124 | 0.0 | 2.0 | 0.00 | 0.00 | 0.00 | 62 | 1011.3 |
| 20260509023528 | 58 | 124 | 1.0 | 2.0 | 0.00 | 0.00 | 0.00 | 61 | 1011.3 |
| 20260509023102 | 58 | 124 | 1.0 | 2.0 | 0.00 | 0.00 | 0.00 | 60 | 1011.3 |
| 20260509022554 | 58 | 124 | 0.0 | 2.0 | 0.00 | 0.00 | 0.00 | 60 | 1011.4 |
| 20260509022026 | 58 | 124 | 0.0 | 3.0 | 0.00 | 0.00 | 0.00 | 59 | 1011.6 |
| 20260509021532 | 58 | 124 | 0.0 | 5.0 | 0.00 | 0.00 | 0.00 | 59 | 1011.4 |
| 20260509021024 | 58 | 123 | 3.0 | 7.0 | 0.00 | 0.00 | 0.00 | 59 | 1011.5 |
| 20260509020041 | 58 | 129 | 4.0 | 10.0 | 0.00 | 0.00 | 0.00 | 60 | 1011.5 |
| 20260509015535 | 58 | 145 | 5.0 | 10.0 | 0.00 | 0.00 | 0.00 | 60 | 1011.4 |
| 20260509015031 | 58 | 149 | 6.0 | 8.0 | 0.00 | 0.00 | 0.00 | 59 | 1011.2 |
| 20260509014544 | 58 | 132 | 3.0 | 8.0 | 0.00 | 0.00 | 0.00 | 60 | 1011.1 |
| 20260509014041 | 58 | 136 | 4.0 | 8.0 | 0.00 | 0.00 | 0.00 | 59 | 1011.2 |
| 20260509013540 | 58 | 134 | 3.0 | 5.0 | 0.00 | 0.00 | 0.00 | 59 | 1011.2 |
| 20260509013034 | 59 | 134 | 2.0 | 3.0 | 0.00 | 0.00 | 0.00 | 59 | 1011.1 |
| 20260509012527 | 59 | 125 | 0.0 | 10.0 | 0.00 | 0.00 | 0.00 | 59 | 1011.1 |
| 20260509012044 | 59 | 125 | 2.0 | 10.0 | 0.00 | 0.00 | 0.00 | 58 | 1011.1 |
| 20260509011602 | 59 | 146 | 4.0 | 7.0 | 0.00 | 0.00 | 0.00 | 60 | 1011.2 |
| 20260509011035 | 59 | 24 | 2.0 | 3.0 | 0.00 | 0.00 | 0.00 | 58 | 1011.0 |
| 20260509010525 | 59 | 24 | 2.0 | 3.0 | 0.00 | 0.00 | 0.00 | 56 | 1010.9 |
| 20260509010043 | 60 | 298 | 1.0 | 3.0 | 0.00 | 0.00 | 0.00 | 55 | 1011.1 |
| 20260509005600 | 60 | 298 | 0.0 | 1.0 | 0.00 | 0.00 | 0.00 | 55 | 1011.0 |
| 20260509005032 | 60 | 298 | 0.0 | 2.0 | 0.00 | 0.00 | 0.00 | 57 | 1010.9 |
| 20260509004525 | 60 | 298 | 0.0 | 2.0 | 0.00 | 0.00 | 0.00 | 55 | 1010.9 |
| 20260509004104 | 60 | 298 | 1.0 | 2.0 | 0.00 | 0.00 | 0.00 | 54 | 1011.0 |
| 20260509003540 | 60 | 298 | 1.0 | 2.0 | 0.00 | 0.00 | 0.00 | 53 | 1011.0 |
| 20260509003030 | 60 | 298 | 0.0 | 1.0 | 0.00 | 0.00 | 0.00 | 52 | 1011.0 |
| 20260509002603 | 61 | 298 | 0.0 | 1.0 | 0.00 | 0.00 | 0.00 | 54 | 1011.1 |
| 20260509002043 | 61 | 298 | 0.0 | 2.0 | 0.00 | 0.00 | 0.00 | 51 | 1011.0 |
| 20260509001538 | 61 | 298 | 1.0 | 2.0 | 0.00 | 0.00 | 0.00 | 52 | 1011.0 |
| 20260509001039 | 61 | 298 | 0.0 | 1.0 | 0.00 | 0.00 | 0.00 | 51 | 1011.0 |
| 20260509000531 | 62 | 298 | 0.0 | 3.0 | 0.00 | 0.00 | 0.00 | 51 | 1010.9 |
| 20260509000026 | 62 | 298 | 1.0 | 3.0 | 0.00 | 0.00 | 0.00 | 51 | 1011.0 |
| 20260508235536 | 62 | 295 | 0.0 | 3.0 | 0.00 | 0.00 | 0.00 | 50 | 1010.9 |
| 20260508235052 | 63 | 295 | 1.0 | 4.0 | 0.00 | 0.00 | 0.00 | 48 | 1010.9 |
| 20260508234524 | 63 | 290 | 2.0 | 4.0 | 0.00 | 0.00 | 0.00 | 46 | 1011.0 |
| 20260508234038 | 63 | 283 | 2.0 | 4.0 | 0.00 | 0.00 | 0.00 | 45 | 1010.9 |
| 20260508233556 | 64 | 280 | 2.0 | 5.0 | 0.00 | 0.00 | 0.00 | 46 | 1010.8 |
| 20260508233029 | 64 | 301 | 2.0 | 8.0 | 0.00 | 0.00 | 0.00 | 45 | 1010.7 |
| 20260508232603 | 64 | 258 | 3.0 | 9.0 | 0.00 | 0.00 | 0.00 | 44 | 1010.6 |
| 20260508232040 | 64 | 257 | 3.0 | 9.0 | 0.00 | 0.00 | 0.00 | 43 | 1010.6 |
| 20260508231534 | 64 | 279 | 5.0 | 9.0 | 0.00 | 0.00 | 0.00 | 44 | 1010.6 |
| 20260508231028 | 64 | 273 | 4.0 | 9.0 | 0.00 | 0.00 | 0.00 | 44 | 1010.5 |
| 20260508230558 | 64 | 292 | 5.0 | 9.0 | 0.00 | 0.00 | 0.00 | 43 | 1010.6 |
| 20260508230032 | 64 | 259 | 6.0 | 9.0 | 0.00 | 0.00 | 0.00 | 43 | 1010.7 |
| 20260508225524 | 64 | 271 | 4.0 | 9.0 | 0.00 | 0.00 | 0.00 | 43 | 1010.7 |
| 20260508225044 | 64 | 296 | 2.0 | 12.0 | 0.00 | 0.00 | 0.00 | 44 | 1010.8 |
| 20260508224537 | 64 | 277 | 5.0 | 12.0 | 0.00 | 0.00 | 0.00 | 43 | 1010.7 |
| 20260508224057 | 64 | 294 | 5.0 | 11.0 | 0.00 | 0.00 | 0.00 | 43 | 1010.8 |
| 20260508223553 | 64 | 271 | 3.0 | 18.0 | 0.00 | 0.00 | 0.00 | 42 | 1010.9 |
| 20260508223027 | 64 | 290 | 10.0 | 18.0 | 0.00 | 0.00 | 0.00 | 42 | 1011.0 |
| 20260508222542 | 64 | 281 | 9.0 | 16.0 | 0.00 | 0.00 | 0.00 | 42 | 1010.9 |
| 20260508222042 | 64 | 280 | 9.0 | 17.0 | 0.00 | 0.00 | 0.00 | 42 | 1010.9 |
| 20260508221533 | 64 | 273 | 8.0 | 18.0 | 0.00 | 0.00 | 0.00 | 42 | 1010.9 |
| 20260508221031 | 64 | 231 | 9.0 | 18.0 | 0.00 | 0.00 | 0.00 | 41 | 1010.8 |
| 20260508220524 | 64 | 256 | 8.0 | 17.0 | 0.00 | 0.00 | 0.00 | 41 | 1010.8 |
| 20260508220105 | 64 | 255 | 11.0 | 20.0 | 0.00 | 0.00 | 0.00 | 41 | 1010.8 |
| 20260508215557 | 64 | 236 | 8.0 | 20.0 | 0.00 | 0.00 | 0.00 | 40 | 1010.8 |
| 20260508215030 | 65 | 247 | 9.0 | 19.0 | 0.00 | 0.00 | 0.00 | 40 | 1010.8 |
| 20260508214528 | 65 | 281 | 11.0 | 20.0 | 0.00 | 0.00 | 0.00 | 40 | 1010.7 |
| 20260508214027 | 65 | 256 | 9.0 | 20.0 | 0.00 | 0.00 | 0.00 | 40 | 1010.7 |
| 20260508213559 | 65 | 213 | 12.0 | 18.0 | 0.00 | 0.00 | 0.00 | 39 | 1010.7 |
| 20260508213041 | 65 | 228 | 9.0 | 18.0 | 0.00 | 0.00 | 0.00 | 39 | 1010.6 |
| 20260508212531 | 65 | 248 | 9.0 | 18.0 | 0.00 | 0.00 | 0.00 | 40 | 1010.7 |
| 20260508212026 | 65 | 240 | 7.0 | 18.0 | 0.00 | 0.00 | 0.00 | 39 | 1010.7 |
| 20260508211541 | 65 | 240 | 8.0 | 18.0 | 0.00 | 0.00 | 0.00 | 39 | 1010.6 |
| 20260508211037 | 65 | 221 | 8.0 | 18.0 | 0.00 | 0.00 | 0.00 | 39 | 1010.6 |
| 20260508210531 | 65 | 245 | 8.0 | 15.0 | 0.00 | 0.00 | 0.00 | 39 | 1010.8 |
| 20260508210026 | 65 | 250 | 7.0 | 13.0 | 0.00 | 0.00 | 0.00 | 39 | 1010.8 |
| 20260508205544 | 65 | 256 | 5.0 | 13.0 | 0.00 | 0.00 | 0.00 | 40 | 1010.6 |
| 20260508205038 | 65 | 238 | 7.0 | 13.0 | 0.00 | 0.00 | 0.00 | 39 | 1010.6 |
| 20260508204535 | 65 | 237 | 6.0 | 16.0 | 0.00 | 0.00 | 0.00 | 38 | 1010.7 |
| 20260508204030 | 65 | 254 | 9.0 | 18.0 | 0.00 | 0.00 | 0.00 | 37 | 1010.7 |
| 20260508203547 | 65 | 224 | 9.0 | 23.0 | 0.00 | 0.00 | 0.00 | 37 | 1010.8 |